Location: Unspecified
(38.9820°N, 94.4650°W)
Time: 05:37:41
(UTC-05:00)

CZ-3 Stage 3 - Visible Passes

Search period start: 26 May 2016 00:00
Search period end: 05 June 2016 00:00
Orbit: 420 x 34784 km, 30.3° (Epoch: 24 May)

Date Brightness Start Highest point End Pass type
(mag) Time Alt. Az. Time Alt. Az. Time Alt. Az.
27 May 4.3 01:58:58 10° WSW 02:32:40 48° S 02:37:56 10° ESE visible
27 May 6.3 15:56:21 10° SSE 22:42:08 40° SSE 23:01:02 10° E visible
30 May 4.3 01:49:53 10° WSW 02:24:17 49° S 02:29:33 10° ESE visible
30 May 6.3 15:44:01 10° SSE 22:33:58 42° SSE 22:52:45 10° E visible
02 Jun 4.3 01:40:48 10° WSW 02:15:52 50° S 02:21:10 10° ESE visible
02 Jun 6.3 15:31:36 10° SSE 22:25:46 43° SSE 22:44:28 10° E visible
